This is the latest recevied weather packets stored in our database for station/object IW2NTF-3. If no packets are shown the sender has not sent any weather packets the latest 1 day(s).
| Time | Temp. | Humidity | Pressure | Rain* | Wind** | Luminosity | Snow |
|---|---|---|---|---|---|---|---|
| 1777985763 | 15° C | 82% | 1012.8 hPa | 0 mm | 1.79 m/s, 20° | 72 W/m² | - |
| 1777985703 | 15° C | 82% | 1012.8 hPa | 0 mm | 1.79 m/s, 17° | 70 W/m² | - |
| 1777985643 | 15° C | 82% | 1012.8 hPa | 0 mm | 1.79 m/s, 15° | 67 W/m² | - |
| 1777985583 | 15° C | 82% | 1012.8 hPa | 0 mm | 1.79 m/s, 14° | 63 W/m² | - |
| 1777985523 | 15° C | 82% | 1012.8 hPa | 0 mm | 1.79 m/s, 13° | 56 W/m² | - |
| 1777985463 | 15° C | 81% | 1012.8 hPa | 0 mm | 1.79 m/s, 13° | 49 W/m² | - |
| 1777985403 | 15° C | 81% | 1012.8 hPa | 0 mm | 1.79 m/s, 13° | 44 W/m² | - |
| 1777985343 | 15° C | 81% | 1012.8 hPa | 0 mm | 1.79 m/s, 14° | 40 W/m² | - |
| 1777985283 | 15° C | 81% | 1012.8 hPa | 0 mm | 1.79 m/s, 14° | 33 W/m² | - |
| 1777985223 | 15° C | 81% | 1012.8 hPa | 0 mm | 1.79 m/s, 14° | 30 W/m² | - |
| 1777985163 | 15° C | 81% | 1012.9 hPa | 0 mm | 1.34 m/s, 13° | 28 W/m² | - |
| 1777985103 | 15° C | 81% | 1012.9 hPa | 0 mm | 1.34 m/s, 15° | 26 W/m² | - |
| 1777985043 | 15° C | 81% | 1012.9 hPa | 0 mm | 1.34 m/s, 15° | 26 W/m² | - |
| 1777984983 | 15° C | 81% | 1012.8 hPa | 0 mm | 1.34 m/s, 13° | 26 W/m² | - |
| 1777984923 | 15° C | 81% | 1012.8 hPa | 0 mm | 0.89 m/s, 16° | 28 W/m² | - |
| 1777984863 | 15° C | 81% | 1012.9 hPa | 0 mm | 0.89 m/s, 16° | 30 W/m² | - |
| 1777984803 | 15° C | 81% | 1012.8 hPa | 0 mm | 0.89 m/s, 17° | 32 W/m² | - |
| 1777984743 | 15° C | 81% | 1012.8 hPa | 0 mm | 0.45 m/s, 22° | 32 W/m² | - |
| 1777984683 | 15° C | 81% | 1012.9 hPa | 0 mm | 0.45 m/s, 32° | 32 W/m² | - |
| 1777984623 | 15° C | 81% | 1012.9 hPa | 0 mm | 0.89 m/s, 38° | 33 W/m² | - |
| 1777984563 | 15° C | 81% | 1012.9 hPa | 0 mm | 0.89 m/s, 41° | 37 W/m² | - |
| 1777984503 | 15° C | 81% | 1013 hPa | 0 mm | 0.89 m/s, 45° | 39 W/m² | - |
| 1777984443 | 15° C | 81% | 1013 hPa | 0 mm | 0.89 m/s, 46° | 39 W/m² | - |
| 1777984383 | 15° C | 81% | 1012.9 hPa | 0 mm | 0.89 m/s, 45° | 37 W/m² | - |
| 1777984323 | 15° C | 80% | 1012.9 hPa | 0 mm | 0.89 m/s, 41° | 35 W/m² | - |
* Rain latest hour (hover to see other rain measurements)
** Current wind speed in m/s (hover to see current wind gust speed)